Temperature
23 23 22 22 21 21 20 20 20 20 20 20 19 19 19 19 19 19 19 19 19 19 19 18 18 18 19 19 19 19 19 19 19 19 19 18 18 18 18 18 17 18 18
23 23 23 22 21 21 20 20 20 20 20 19 19 19 19 19 19 19 19 19 19 19 19 18 18 19 19 19 19 19 19 19 19 18 18 18 18 18 18 17 17 18 18
23 23 22 22 21 21 20 20 20 20 19 19 19 19 19 19 19 19 19 19 19 19 19 18 19 19 19 19 19 19 19 18 18 18 18 18 18 18 18 17 18 18 17
23 23 22 22 21 21 20 20 20 20 19 19 19 19 19 19 19 19 19 19 19 18 19 19 19 19 19 19 19 19 18 18 18 18 17 17 18 18 18 18 18 18 17
22 22 22 22 21 21 20 20 20 20 20 19 19 19 19 19 19 19 19 19 19 19 19 19 19 19 19 19 19 19 18 18 18 18 17 18 18 18 18 18 17 17 17
21 22 22 22 21 21 20 20 20 20 19 19 19 19 19 19 19 19 19 19 19 19 19 19 19 19 19 19 19 19 19 18 18 18 18 18 18 18 18 18 17 17 17
22 22 22 22 21 20 20 20 20 20 19 19 19 19 19 19 19 19 19 19 19 19 19 19 19 19 19 19 19 19 19 18 18 18 18 18 18 18 18 18 17 17 17
22 22 22 21 21 20 20 20 20 19 19 19 19 19 19 19 19 19 19 19 19 19 19 19 19 19 19 19 19 19 19 18 18 18 18 18 18 18 18 18 18 17 17
22 21 22 21 21 20 20 20 20 19 19 19 19 19 19 19 19 19 19 19 19 19 19 19 19 19 19 19 19 19 19 19 18 18 18 18 18 18 18 18 18 18 17
22 21 21 20 20 20 20 20 20 19 19 19 19 19 19 19 19 19 19 19 19 19 19 19 19 19 19 19 19 19 19 19 19 18 18 18 18 19 18 18 18 18 17
21 21 20 20 20 19 19 19 19 19 19 19 19 19 19 19 18 18 18 18 18 18 19 19 19 19 19 19 19 19 19 19 19 18 18 18 18 19 19 18 18 18 18
21 21 20 20 19 19 19 19 19 19 19 19 19 19 19 19 18 18 18 18 18 18 18 18 18 18 18 19 19 19 19 19 19 18 18 18 18 19 19 18 18 18 18
21 21 20 20 19 19 19 19 19 19 19 18 18 18 18 18 18 18 18 18 18 18 18 18 18 18 18 18 18 18 18 18 19 19 19 18 18 18 18 18 18 18 18
21 20 20 19 19 19 19 19 19 19 18 18 18 18 18 18 18 18 18 18 18 18 18 18 18 18 18 18 18 18 18 18 19 19 18 18 18 18 18 18 18 18 18
20 20 19 19 19 19 19 19 19 18 18 18 18 18 18 18 18 18 18 18 18 17 17 17 17 17 17 18 17 18 18 18 18 18 18 18 18 18 18 18 18 18 18
20 19 19 19 19 19 19 19 19 18 18 18 18 18 17 17 17 17 17 17 17 17 17 17 17 17 17 17 17 17 17 18 18 18 18 18 18 18 18 18 18 18 18
20 19 19 19 19 19 18 18 18 18 18 18 18 17 17 17 17 17 17 17 17 17 17 17 17 17 17 17 17 17 17 17 17 18 18 17 17 18 18 18 18 18 18
19 19 19 19 19 18 18 18 18 18 17 17 17 17 17 17 17 17 17 17 17 17 16 17 17 17 17 17 17 17 17 17 17 17 17 17 17 17 17 17 18 18 18
19 19 19 18 18 18 18 18 18 18 17 17 17 17 17 16 16 16 16 16 16 16 16 16 16 16 16 16 17 17 17 17 17 17 17 17 17 17 17 17 17 18 18
18 18 18 18 18 18 18 18 17 17 17 17 17 17 16 16 16 16 16 16 16 16 15 15 16 16 16 16 16 16 16 17 17 17 17 17 17 17 17 17 17 17 17
18 18 18 18 18 18 18 17 17 17 17 17 17 16 16 16 15 16 15 15 15 15 15 15 15 15 15 15 15 16 16 17 17 17 17 17 17 17 17 17 17 17 17
18 18 18 18 18 17 17 17 17 17 17 17 17 16 16 15 15 15 15 15 15 15 15 15 15 15 15 15 15 15 16 17 17 17 17 17 17 17 17 17 17 17 17
18 18 18 18 18 17 17 17 17 17 17 17 16 16 16 15 15 14 14 14 14 14 14 14 14 14 14 14 15 15 15 16 16 17 17 17 17 17 17 17 16 17 16
19 18 18 18 17 17 17 17 17 16 16 16 16 16 15 15 14 14 14 14 13 13 13 13 14 14 14 14 14 14 15 15 15 15 16 16 16 16 16 16 16 16 16
19 19 18 18 17 17 16 16 16 16 16 16 15 15 15 15 14 14 14 13 13 13 13 13 13 13 13 13 13 14 14 14 14 14 15 16 16 16 16 16 16 16 16
20 19 18 18 17 16 16 16 15 15 15 15 15 14 14 14 14 14 14 13 13 13 12 13 12 13 13 13 13 13 13 14 14 14 14 15 15 16 16 16 16 16 16
Wind_Speed
19 19 20 17 15 14 14 13 13 13 13 13 12 12 13 13 13 13 13 13 12 12 11 10 10 10 10 11 11 11 11 11 12 12 13 13 13 12 11 11 14 16 17
22 21 21 18 15 14 14 13 14 13 13 13 12 12 12 11 12 12 11 11 11 11 11 10 10 10 10 10 10 10 9 9 9 11 13 13 12 11 10 10 14 15 17
22 20 20 18 16 15 14 13 13 13 13 13 12 12 11 11 11 11 10 9 9 10 10 10 10 10 10 10 9 8 7 6 6 8 10 13 13 12 13 16 18 16 16
21 19 19 18 17 16 14 14 13 13 13 12 12 11 11 10 10 10 9 8 8 9 9 9 9 9 9 9 8 6 4 3 2 4 6 10 13 13 14 15 16 16 15
20 20 20 19 17 16 15 14 13 13 12 12 12 11 10 10 9 9 8 7 7 8 8 8 8 8 8 7 6 4 1 1 3 6 5 15 15 13 13 14 14 14 15
21 20 20 19 17 16 15 14 13 13 12 11 11 10 10 9 8 8 7 7 7 7 7 7 7 7 6 6 4 2 1 4 7 6 8 16 14 13 13 12 13 13 14
21 20 20 19 17 15 14 13 12 12 11 11 10 9 9 8 7 7 6 6 6 6 6 6 6 6 5 4 3 0 3 7 9 5 9 16 15 14 12 12 12 12 13
21 20 19 18 17 15 14 13 12 11 11 10 9 9 8 7 7 6 6 5 5 5 5 6 6 6 6 4 3 2 4 8 8 3 11 17 17 15 12 12 11 12 12
20 19 16 16 15 14 13 12 11 10 10 9 8 8 7 6 6 6 6 6 5 5 5 5 6 6 6 6 4 4 5 8 11 6 9 15 18 16 13 12 11 11 11
18 17 15 15 14 13 12 11 10 10 9 9 8 7 7 7 7 8 8 8 7 6 6 6 6 7 7 7 7 6 7 9 11 8 8 16 20 17 14 12 12 12 12
15 13 14 13 12 12 12 12 11 10 9 9 8 8 8 8 8 9 10 11 10 8 8 8 8 8 8 10 11 10 9 9 11 7 8 19 20 18 16 14 13 13 12
13 12 11 11 10 9 9 12 10 10 10 8 7 9 8 6 5 5 8 11 11 10 9 10 10 10 10 10 13 13 10 12 12 6 11 22 21 19 17 16 15 14 13
10 10 10 9 6 5 5 7 4 5 7 7 6 7 5 3 3 1 4 8 9 9 8 9 10 9 9 9 6 10 11 11 9 5 13 22 20 19 18 17 17 16 15
10 9 9 9 7 4 4 3 2 3 3 3 3 3 2 0 1 1 1 1 4 5 5 4 5 7 7 7 6 8 9 9 8 4 12 21 20 19 19 18 18 18 18
8 9 9 8 6 5 4 1 3 2 1 3 3 2 2 1 1 1 1 2 3 4 3 2 3 3 4 5 6 7 6 8 10 6 8 18 19 19 19 19 19 18 19
8 9 8 8 7 5 4 2 2 2 3 4 4 4 2 0 1 1 1 1 3 4 4 4 4 4 4 4 5 6 7 9 9 9 8 14 18 20 21 20 20 20 20
9 9 7 7 7 6 4 2 2 3 4 3 3 3 2 1 0 1 2 2 2 4 4 4 5 4 5 6 6 7 6 8 9 9 10 10 14 18 20 21 21 21 22
10 8 6 8 8 7 5 4 2 3 3 2 3 4 4 2 2 2 1 0 2 4 3 3 3 3 3 3 4 5 5 5 8 10 11 11 12 14 20 23 23 23 23
9 8 8 8 7 6 5 3 3 2 1 1 3 4 3 2 3 3 2 1 3 3 3 4 1 2 3 4 5 6 7 7 7 9 9 11 13 15 15 21 25 26 25
9 8 7 7 5 4 4 2 2 2 1 1 3 4 3 2 3 3 2 1 2 3 2 2 3 3 4 5 8 7 5 7 6 8 10 9 11 15 17 17 20 23 27
8 7 7 6 4 2 2 2 1 1 0 1 2 4 3 1 2 2 2 3 2 2 3 4 3 5 5 4 5 6 6 8 8 8 8 7 7 10 14 16 15 17 19
7 7 7 6 4 2 3 1 1 1 1 1 3 3 2 1 1 3 2 3 3 3 4 4 4 3 5 4 3 4 5 5 4 7 6 7 7 5 6 12 13 15 17
8 7 6 5 4 3 2 0 2 1 2 1 1 2 2 1 1 2 3 3 4 5 4 4 4 4 4 5 4 3 3 3 4 3 3 4 4 5 5 5 9 14 17
8 8 8 6 4 3 1 2 3 2 2 3 2 2 2 2 2 3 3 3 3 4 5 6 4 4 4 4 4 4 4 3 3 4 4 2 3 4 5 6 5 8 14
8 8 8 7 4 2 1 2 3 4 4 4 4 4 3 3 3 3 2 1 2 3 5 5 6 5 5 5 5 4 5 4 5 4 5 4 3 3 4 4 5 4 8
8 8 8 8 5 3 1 1 2 4 4 5 5 5 4 3 2 2 1 2 3 3 5 5 6 7 6 6 5 5 5 4 4 4 5 5 5 4 3 3 4 4 6
Wind_Direction
121 127 127 124 124 127 130 133 132 127 122 117 112 108 104 100 97 95 93 92 90 87 84 81 82 81 81 80 78 79 81 84 87 91 91 90 90 89 93 103 108 101 106
122 126 126 124 123 125 128 131 132 130 127 123 120 116 112 108 105 102 99 96 93 89 87 84 84 84 86 87 86 87 90 95 101 109 110 101 90 86 92 99 104 109 110
120 126 126 123 122 123 125 127 130 131 129 127 126 124 120 116 112 109 105 102 98 93 90 89 88 87 89 90 89 91 97 104 118 135 143 118 102 91 93 100 106 112 112
123 130 127 125 123 123 124 125 128 129 130 130 129 128 127 124 120 116 114 110 105 99 95 93 91 90 92 93 92 93 100 116 147 191 190 125 108 100 101 106 112 116 116
124 125 126 129 126 125 125 125 127 129 130 132 132 132 131 129 127 123 121 119 113 105 100 98 97 96 96 96 95 94 81 312 288 269 105 100 102 110 111 114 117 120 120
127 126 129 130 129 128 128 128 129 131 131 132 132 134 135 135 133 131 131 127 121 115 113 111 107 106 105 104 104 95 322 309 300 271 127 113 113 119 119 121 123 124 124
125 126 131 131 130 131 131 132 133 135 136 137 138 140 143 144 146 146 141 135 134 131 128 129 127 125 122 122 125 164 304 305 287 280 112 112 121 126 127 127 127 128 129
125 125 130 132 134 134 136 138 139 141 142 144 146 148 150 153 155 155 154 155 155 151 148 147 147 149 149 153 169 239 289 300 306 317 120 122 133 133 134 135 134 135 135
121 126 135 137 138 139 141 143 143 147 150 153 156 158 162 166 173 177 175 175 172 169 169 169 169 169 173 179 195 232 272 292 298 289 130 132 140 140 143 145 145 146 145
120 129 135 141 144 149 151 153 154 160 163 164 168 173 181 194 201 202 197 190 186 186 190 191 192 192 192 197 207 226 254 279 274 262 140 144 148 149 152 156 157 157 156
116 123 133 138 149 158 158 158 166 174 177 179 184 192 200 212 209 205 216 191 192 195 201 205 208 207 206 210 213 220 235 253 258 253 139 149 155 156 160 165 168 167 166
122 128 132 137 151 161 156 154 179 180 175 192 189 193 207 228 232 210 187 190 200 205 211 214 216 217 219 222 214 213 228 239 255 243 152 157 161 162 167 172 176 177 176
125 127 124 124 116 121 126 152 165 155 156 192 187 190 208 245 259 235 170 191 208 217 223 218 212 224 227 232 208 200 228 249 249 236 161 163 167 169 173 179 183 184 185
126 121 113 113 105 91 88 114 131 123 155 168 158 175 167 169 334 338 350 198 214 219 223 226 218 229 245 255 239 219 229 248 263 239 169 172 174 177 181 185 189 191 191
114 107 104 102 105 107 92 66 88 76 81 102 101 77 55 50 323 297 290 285 275 260 234 236 236 241 246 256 259 249 244 248 262 259 187 181 183 185 189 192 195 198 199
119 106 108 112 108 102 100 92 82 90 79 75 85 77 77 73 209 247 251 257 264 259 240 235 241 232 236 241 249 251 246 250 253 249 209 195 196 194 195 198 200 203 204
114 112 115 113 108 102 93 82 80 89 93 93 107 116 99 61 304 287 259 242 263 270 254 239 250 244 236 238 238 245 242 242 246 248 239 215 205 206 205 205 204 206 208
109 108 106 106 105 102 91 74 63 56 67 84 106 95 70 34 14 315 286 250 305 282 265 250 240 260 263 258 256 255 253 241 238 240 242 233 220 217 213 212 209 209 211
102 102 96 93 101 105 104 104 105 96 71 69 85 83 60 29 26 341 328 29 313 292 289 295 354 319 299 291 272 249 241 245 238 237 233 232 226 224 215 215 214 212 214
108 105 102 99 94 106 111 127 123 124 149 126 103 94 73 35 46 349 301 13 328 311 314 320 316 292 278 274 277 279 260 247 233 233 232 231 226 224 222 221 213 216 217
119 116 113 110 107 97 89 84 91 105 213 143 125 117 114 65 24 304 326 344 303 301 313 314 307 297 281 261 267 281 272 252 234 224 218 225 229 227 222 219 210 208 214
129 125 130 128 128 122 99 76 97 46 294 144 95 119 117 79 348 306 17 316 326 320 291 280 274 279 296 302 290 294 292 279 262 244 216 214 221 222 224 225 218 213 214
144 150 136 129 134 114 94 351 32 32 298 26 54 108 84 24 327 334 326 317 332 318 309 315 306 291 286 293 284 276 287 300 326 292 255 229 215 212 222 222 221 219 220
158 148 131 134 130 117 107 28 349 348 360 6 3 36 26 334 300 290 289 305 313 311 311 309 325 318 300 292 290 270 259 280 292 310 312 283 233 222 224 234 237 224 220
157 146 141 135 131 124 65 42 357 358 356 0 3 1 347 300 270 256 263 283 310 301 311 321 319 311 305 298 300 303 293 275 246 253 284 297 293 259 232 228 228 229 228
160 151 146 139 140 137 122 30 22 2 351 338 330 324 324 314 308 329 338 27 339 321 322 317 310 300 289 293 296 296 293 287 278 267 268 280 281 273 264 244 234 228 231
Height
1504 1507 1511 1515 1517 1520 1523 1525 1528 1530 1532 1534 1536 1537 1539 1540 1541 1542 1544 1545 1546 1547 1548 1549 1550 1551 1552 1553 1553 1554 1555 1556 1556 1557 1558 1559 1559 1561 1561 1562 1563 1564 1566
1503 1508 1512 1515 1518 1521 1524 1527 1529 1531 1534 1535 1537 1539 1540 1542 1543 1544 1545 1546 1548 1549 1550 1551 1552 1552 1553 1554 1555 1555 1556 1557 1558 1559 1560 1561 1562 1563 1563 1564 1566 1567 1568
1503 1508 1513 1516 1519 1522 1525 1528 1530 1533 1535 1537 1539 1540 1542 1543 1544 1545 1547 1548 1549 1550 1551 1552 1553 1554 1554 1555 1556 1557 1558 1559 1560 1561 1562 1563 1564 1565 1566 1567 1568 1569 1571
1505 1509 1513 1517 1520 1523 1526 1529 1532 1534 1536 1538 1540 1541 1543 1544 1545 1547 1548 1549 1550 1551 1552 1553 1554 1555 1556 1557 1558 1559 1560 1561 1562 1563 1565 1566 1567 1567 1568 1569 1570 1571 1573
1507 1510 1514 1518 1521 1524 1527 1530 1533 1535 1537 1539 1541 1542 1544 1545 1547 1548 1549 1550 1551 1552 1553 1554 1555 1556 1557 1558 1559 1560 1562 1563 1564 1565 1567 1568 1568 1569 1570 1571 1572 1573 1575
1508 1511 1515 1519 1522 1525 1528 1531 1534 1536 1538 1540 1542 1543 1545 1546 1548 1549 1550 1551 1552 1553 1554 1555 1556 1557 1558 1559 1560 1562 1563 1564 1565 1567 1569 1569 1570 1570 1571 1572 1573 1575 1576
1509 1512 1516 1520 1523 1526 1529 1532 1534 1537 1539 1540 1542 1544 1545 1547 1548 1549 1551 1552 1553 1554 1555 1556 1557 1558 1559 1560 1561 1563 1564 1565 1566 1568 1569 1570 1571 1571 1572 1573 1575 1576 1578
1509 1512 1517 1520 1524 1527 1530 1532 1535 1537 1539 1541 1543 1544 1546 1547 1549 1550 1551 1552 1553 1554 1555 1556 1557 1558 1559 1561 1562 1563 1565 1566 1567 1569 1570 1570 1571 1572 1573 1574 1576 1577 1579
1510 1513 1517 1521 1525 1527 1530 1533 1535 1537 1539 1541 1543 1544 1546 1547 1549 1550 1551 1553 1554 1555 1556 1556 1557 1558 1559 1561 1562 1563 1565 1566 1567 1569 1570 1570 1571 1573 1574 1575 1576 1578 1580
1511 1515 1519 1522 1525 1528 1531 1533 1535 1538 1539 1541 1543 1544 1546 1547 1549 1550 1551 1552 1553 1554 1555 1556 1557 1558 1559 1560 1562 1563 1564 1566 1567 1569 1570 1570 1571 1573 1574 1575 1577 1578 1580
1514 1517 1521 1523 1525 1528 1531 1533 1535 1537 1539 1540 1542 1544 1545 1547 1548 1550 1551 1552 1553 1554 1555 1556 1557 1557 1558 1559 1561 1562 1563 1565 1566 1568 1569 1569 1571 1572 1574 1575 1577 1578 1580
1515 1519 1522 1524 1526 1530 1532 1533 1535 1537 1539 1540 1541 1543 1544 1546 1548 1549 1550 1551 1552 1553 1554 1554 1555 1556 1557 1558 1559 1560 1562 1563 1565 1567 1567 1568 1570 1572 1573 1574 1576 1578 1579
1516 1519 1521 1524 1526 1530 1532 1534 1536 1537 1538 1539 1540 1541 1543 1544 1546 1547 1548 1549 1550 1551 1552 1553 1553 1554 1555 1556 1558 1558 1560 1562 1564 1565 1565 1566 1568 1570 1572 1573 1575 1576 1578
1516 1519 1521 1523 1526 1528 1530 1533 1535 1536 1537 1538 1539 1540 1541 1543 1544 1545 1547 1547 1548 1549 1550 1551 1552 1553 1554 1555 1556 1557 1558 1560 1561 1562 1563 1564 1566 1568 1570 1572 1573 1575 1577
1517 1519 1521 1523 1525 1528 1529 1531 1533 1535 1536 1537 1537 1538 1540 1541 1542 1543 1544 1545 1546 1547 1548 1549 1550 1550 1551 1552 1553 1554 1555 1556 1558 1560 1560 1561 1563 1565 1567 1569 1571 1572 1574
1517 1519 1521 1523 1525 1527 1528 1530 1532 1533 1534 1535 1536 1536 1537 1539 1540 1541 1541 1543 1544 1544 1545 1546 1547 1547 1548 1549 1549 1550 1551 1552 1554 1556 1557 1557 1559 1561 1563 1565 1567 1569 1571
1518 1519 1522 1524 1525 1527 1528 1530 1531 1532 1533 1534 1535 1536 1536 1537 1538 1539 1539 1540 1541 1542 1543 1543 1544 1544 1545 1545 1546 1546 1547 1548 1549 1551 1552 1553 1554 1556 1558 1560 1562 1565 1567
1518 1520 1523 1525 1526 1527 1528 1529 1531 1532 1533 1534 1534 1535 1535 1536 1537 1537 1538 1539 1539 1540 1540 1541 1541 1541 1542 1542 1542 1543 1543 1543 1544 1545 1546 1548 1549 1551 1553 1555 1558 1560 1563
1519 1522 1524 1525 1526 1527 1528 1530 1531 1532 1533 1534 1534 1534 1534 1535 1535 1536 1536 1537 1537 1538 1538 1539 1538 1538 1538 1538 1538 1539 1539 1539 1540 1540 1541 1542 1544 1546 1547 1549 1552 1554 1557
1520 1522 1524 1525 1527 1528 1529 1530 1531 1532 1533 1533 1533 1533 1533 1533 1534 1534 1535 1535 1535 1535 1536 1536 1536 1536 1536 1536 1536 1535 1535 1535 1535 1535 1536 1538 1539 1540 1542 1544 1546 1548 1551
1521 1522 1524 1526 1527 1529 1529 1530 1531 1532 1533 1533 1533 1532 1532 1532 1532 1533 1533 1533 1533 1533 1533 1533 1533 1533 1533 1533 1533 1532 1531 1531 1531 1531 1531 1533 1534 1535 1536 1538 1540 1542 1545
1521 1523 1524 1525 1527 1529 1529 1530 1531 1532 1532 1533 1533 1532 1531 1531 1531 1532 1531 1531 1531 1531 1531 1531 1530 1530 1530 1530 1530 1529 1528 1528 1527 1527 1527 1528 1529 1530 1531 1533 1534 1536 1539
1521 1523 1525 1526 1528 1529 1530 1531 1531 1532 1532 1532 1532 1531 1530 1530 1530 1530 1529 1529 1529 1528 1529 1528 1528 1527 1527 1527 1528 1528 1527 1525 1524 1523 1524 1524 1525 1526 1527 1528 1529 1531 1533
1521 1522 1524 1526 1527 1528 1529 1530 1530 1531 1531 1531 1530 1530 1529 1528 1528 1528 1527 1527 1526 1526 1526 1526 1525 1524 1524 1524 1524 1525 1525 1525 1524 1522 1521 1522 1521 1522 1523 1524 1524 1526 1528
1521 1523 1524 1525 1527 1527 1528 1528 1528 1529 1529 1528 1528 1528 1527 1527 1526 1526 1525 1524 1523 1523 1523 1522 1522 1521 1521 1521 1521 1521 1522 1522 1522 1521 1520 1519 1519 1520 1520 1520 1521 1522 1524
1521 1522 1524 1524 1526 1526 1527 1527 1527 1526 1526 1526 1525 1525 1525 1525 1524 1524 1523 1521 1520 1520 1519 1519 1518 1518 1518 1518 1518 1518 1518 1518 1518 1518 1518 1517 1517 1517 1517 1517 1517 1518 1519